TRANSIT 5B-2 DEB, 25156

Orbit data source: Space-Track

TRANSIT 5B-2 DEB, 25156 is space debris in LEO originally from a launch on Thu, 05 Dec 1963 UTC launched from the Air Force Western Test Range (AFWTR). Debris objects in space refer to the collection of defunct objects orbiting the Earth. Examples of debris include non-operational satellites, rocket bodies, and fragments generated from explosions, collisions, or faulty payload assembly.

Loading next visibility...
Identifier
25156, 1963-049N
Orbit
LEO
Last TLE update
3 hours ago
Origin
Manufacturer
Unknown
Mission
Spacecraft
Bus & Motor
Unknown
Mass
Unknown
Launch date (UTC)
1963-12-05 (62 years ago)
Launch vehicle
Unknown
Launch site
Air Force Western Test Range (AFWTR)
Object type
Payload
Rocket body
Debris
Shape & HBR
Unknown
Radar Cross Section
Medium (>0.1 m² and <1 m²)

Expand to show TLE details & history

TLE from 3 hours ago
0 TRANSIT 5B-2 DEB
1 25156U 63049N   25189.18946993  .00000471  00000-0  64799-3 0  9995
2 25156  89.9179  74.8320 0041713 314.9168 200.7498 13.56836257352811
Epoch: 2025-07-08T04:32Z
TLE epoch observation values (Epoch: 2025-07-08T04:32:50.201Z)
Latitude
24.52536°
Longitude
-99.80246°
Altitude
1,079.228 km
Speed
7.3 km/s
True Right ascension
16h 59m 10s
True Declination
24° 24' 05"
Sunlit
Object was in full shadow at epoch
Visualization orbit readout
Latitude
66.51404°
Longitude
-99.95433°
Altitude
1,087.717 km
Speed
7.3 km/s
Apparent Right ascension
10h 26m 42s
Apparent Declination
38° 14' 16"
Sunlit
Object is in daylight
Visualization observer readout
Local Sidereal Time
19:58:22
Azimuth
331.624° NNW
Elevation
-4.787°
Doppler factor
1
Orbital elements
Apogee altitude
1,075.213 km
Perigee altitude
1,013.291 km
Semi-major axis
7,422.389 km
Eccentricity
0.00417
Inclination
89.9179°
RAAN
74.832°
Arg. of periapsis
314.9168°
True anomaly
Unknown
Mean anomaly
200.7498°
Eccentric anomaly
Unknown
Mean motion
3.39412 °/min
Orbital period
106.07 mins
BSTAR
0.00064799
Loading maneuver chart data...
Loading SW <> Apogee altitude chart data...
Loading historical data...
Loading historical data...
Loading historical data...
Loading historical data...
Loading historical data...
Loading historical data...
Loading historical data...

TRANSIT 5B-2 DEB Visibility forecast

Observer location: undefined°, undefined°

Span
Click to sort rows by Start time (UTC) header in descending order
Start Az.
Max El. time (UTC)
Max El. Az.
Max El.
End time (UTC)
End Az.
11 mins2025-07-08 16:16:45.147Z153.959° SSE2025-07-08 16:21:45.147Z92.426° ESE38.456°2025-07-08 16:27:45.147Z9.173° NNE
8 mins2025-07-08 18:04:45.147Z238.322° WSW2025-07-08 18:08:45.147Z285.021° WNW21.681°2025-07-08 18:12:45.147Z326.654° NNW
8 mins2025-07-09 03:24:45.147Z39.864° NE2025-07-09 03:28:45.147Z83.267° E20.455°2025-07-09 03:32:45.147Z123.878° SE
11 mins2025-07-09 05:09:45.147Z351.129° N2025-07-09 05:14:45.147Z280.318° WNW40.709°2025-07-09 05:20:45.147Z200.892° SSW
|